Location: Kumla
(59.1265°N, 15.1401°E)
Time: 15:54:08
(UTC+01:00)

Transit 4A - All Passes

Search period start: 03 December 2023 00:00
Search period end: 13 December 2023 00:00
Orbit: 864 x 979 km, 66.8° (Epoch: 02 December)

Date Brightness Start Highest point End Pass type
(mag) Time Alt. Az. Time Alt. Az. Time Alt. Az.
03 Dec - 01:46:34 10° WNW 01:52:35 44° N 01:58:26 10° E visible
03 Dec - 03:33:28 10° NW 03:39:45 75° NE 03:45:49 10° ESE visible
03 Dec - 05:20:07 10° NW 05:25:52 41° WSW 05:31:25 10° S visible
03 Dec - 07:09:32 10° W 07:10:36 10° W 07:11:40 10° WSW visible
03 Dec - 18:53:55 10° ESE 18:56:08 12° E 18:58:21 10° E night (unlit)
03 Dec - 20:35:03 10° S 20:41:02 43° ESE 20:46:55 10° NE night (unlit)
03 Dec - 22:20:49 10° WSW 22:27:13 74° NW 22:33:30 10° NE night (unlit)
04 Dec - 00:08:21 10° W 00:14:24 44° N 00:20:19 10° ENE night (unlit)
04 Dec - 01:55:52 10° WNW 02:01:56 47° NNE 02:07:50 10° E visible
04 Dec - 03:42:38 10° NW 03:48:56 88° NE 03:55:00 10° SE visible
04 Dec - 05:29:24 10° NW 05:34:46 32° WSW 05:39:58 10° S visible
04 Dec - 19:01:04 10° SE 19:04:50 17° ESE 19:08:35 10° ENE night (unlit)
04 Dec - 20:43:49 10° SSW 20:50:01 55° SE 20:56:08 10° NE night (unlit)
04 Dec - 22:30:06 10° WSW 22:36:27 63° NNW 22:42:40 10° NE night (unlit)
05 Dec - 00:17:47 10° WNW 00:23:47 42° N 00:29:39 10° ENE night (unlit)
05 Dec - 02:05:08 10° NW 02:11:16 51° NNE 02:17:12 10° E visible
05 Dec - 03:51:49 10° NW 03:58:03 77° SW 04:04:04 10° SE visible
05 Dec - 05:38:47 10° WNW 05:43:35 24° WSW 05:48:16 10° SSW visible
05 Dec - 19:08:54 10° SSE 19:13:35 22° ESE 19:18:14 10° ENE night (unlit)
05 Dec - 20:52:43 10° SSW 20:59:03 69° SE 21:05:18 10° NE night (unlit)
05 Dec - 22:39:28 10° WSW 22:45:43 55° NNW 22:51:51 10° NE night (unlit)
06 Dec - 00:27:11 10° WNW 00:33:10 42° N 00:39:00 10° ENE night (unlit)
06 Dec - 02:14:22 10° NW 02:20:35 58° NNE 02:26:34 10° ESE visible
06 Dec - 04:01:00 10° NW 04:07:07 62° SW 04:13:01 10° SSE visible
06 Dec - 05:48:21 10° WNW 05:52:21 18° WSW 05:56:17 10° SSW visible
06 Dec - 19:17:06 10° S 19:22:25 29° ESE 19:27:40 10° ENE visible
06 Dec - 21:01:45 10° SW 21:08:10 84° SE 21:14:27 10° NE night (unlit)
06 Dec - 22:48:52 10° W 22:55:02 50° NNW 23:01:05 10° NE night (unlit)
07 Dec - 00:36:34 10° WNW 00:42:33 43° N 00:48:22 10° ENE night (unlit)
07 Dec - 02:23:35 10° NW 02:29:49 67° NNE 02:35:51 10° ESE visible
07 Dec - 04:10:12 10° NW 04:16:07 48° SW 04:21:50 10° SSE visible
07 Dec - 05:58:18 10° WNW 06:01:03 13° WSW 06:03:47 10° SW visible
07 Dec - 19:25:33 10° S 19:31:18 37° ESE 19:36:58 10° NE visible
07 Dec - 21:10:54 10° SW 21:17:18 82° NW 21:23:36 10° NE visible
07 Dec - 22:58:17 10° W 23:04:23 46° NNW 23:10:20 10° ENE night (unlit)
08 Dec - 00:45:54 10° WNW 00:51:55 45° NNE 00:57:46 10° E night (unlit)
08 Dec - 02:32:45 10° NW 02:39:02 79° NE 02:45:05 10° SE visible
08 Dec - 04:19:26 10° NW 04:25:03 38° WSW 04:30:30 10° S visible
08 Dec - 17:52:26 10° SE 17:55:16 13° ESE 17:58:04 10° ENE visible
08 Dec - 19:34:11 10° SSW 19:40:14 47° ESE 19:46:13 10° NE visible
08 Dec - 21:20:08 10° WSW 21:26:31 70° NNW 21:32:45 10° NE visible
08 Dec - 23:07:44 10° W 23:13:45 43° N 23:19:37 10° ENE night (unlit)
09 Dec - 00:55:11 10° WNW 01:01:16 48° NNE 01:07:09 10° E night (unlit)
09 Dec - 02:41:56 10° NW 02:48:12 87° SW 02:54:13 10° SE visible
09 Dec - 04:28:44 10° WNW 04:33:56 29° WSW 04:38:58 10° S visible
09 Dec - 17:59:52 10° SSE 18:03:58 18° ESE 18:08:02 10° ENE visible
09 Dec - 19:43:00 10° SSW 19:49:14 59° SE 19:55:24 10° NE visible
09 Dec - 21:29:26 10° WSW 21:35:45 60° NNW 21:41:56 10° NE visible
09 Dec - 23:17:09 10° WNW 23:23:07 42° N 23:28:57 10° ENE night (unlit)
10 Dec - 01:04:27 10° NW 01:10:35 53° NNE 01:16:31 10° E night (unlit)
10 Dec - 02:51:06 10° NW 02:57:17 72° SW 03:03:15 10° SE night (unlit)
10 Dec - 04:38:11 10° WNW 04:42:44 22° WSW 04:47:11 10° SSW visible
10 Dec - 18:07:51 10° SSE 18:12:45 24° ESE 18:17:36 10° ENE visible
10 Dec - 19:51:57 10° SW 19:58:18 73° SE 20:04:33 10° NE visible
10 Dec - 21:38:49 10° W 21:45:02 53° NNW 21:51:07 10° NE visible
10 Dec - 23:26:32 10° WNW 23:32:30 42° N 23:38:18 10° ENE night (unlit)
11 Dec - 01:13:40 10° NW 01:19:52 60° NNE 01:25:51 10° ESE night (unlit)
11 Dec - 03:00:17 10° NW 03:06:20 57° SW 03:12:09 10° SSE night (unlit)
11 Dec - 04:47:49 10° WNW 04:51:28 17° WSW 04:55:04 10° SW night (unlit)
11 Dec - 18:16:08 10° S 18:21:36 31° ESE 18:26:59 10° ENE visible
11 Dec - 20:01:01 10° SW 20:07:25 88° SE 20:13:42 10° NE visible
11 Dec - 21:48:13 10° W 21:54:22 48° NNW 22:00:21 10° ENE visible
11 Dec - 23:35:54 10° WNW 23:41:53 43° N 23:47:41 10° E night (unlit)
12 Dec - 01:22:51 10° NW 01:29:07 70° NE 01:35:08 10° ESE night (unlit)
12 Dec - 03:09:29 10° NW 03:15:18 45° WSW 03:20:56 10° SSE night (unlit)
12 Dec - 04:58:02 10° W 05:00:09 12° W 05:02:15 10° WSW night (unlit)
12 Dec - 16:44:43 10° ESE 16:45:43 10° E 16:46:42 10° E visible
12 Dec - 18:24:38 10° S 18:30:29 40° ESE 18:36:16 10° NE visible
12 Dec - 20:10:11 10° SW 20:16:35 78° NW 20:22:51 10° NE visible
12 Dec - 21:57:39 10° W 22:03:42 45° NNW 22:09:37 10° ENE visible
12 Dec - 23:45:13 10° WNW 23:51:14 45° NNE 23:57:05 10° E night (unlit)
